Location: Plainartige
(45.6866°N, 1.7993°E)
Time: 21:42:43
(UTC+00:00)

POLYITAN 1 - Pass Details

Date: 05 July 2022
Orbit: 586 x 605 km, 98.0° (Epoch: 16 August)

Event Time Altitude Azimuth Distance (km) Brightness Sun altitude
Rises 01:57:24 0° 10° (N) 2,864 ? -16.3°
Reaches altitude 10° 01:59:35 10° 9° (N) 1,958 ? -16.1°
Maximum altitude 02:03:49 69° 286° (WNW) 650 ? -15.7°
Enters shadow 02:05:57 28° 210° (SSW) 1,139 ? -15.5°
